SCP
0 0 0 1 1 0 0 0 0 0 0 0 0 0 0 0 0 0 0 1 2 3 3 3 4 5 5 5 5 5 4 3 3 3 3 2 2 2 2 2 1 1 1 1 1 1 1 0 0
0 0 0 1 1 0 0 0 0 0 0 0 0 0 0 0 0 0 0 1 2 3 3 3 4 5 5 5 5 5 4 4 3 3 3 2 2 2 2 2 2 1 1 1 1 1 0 0 0
0 0 1 1 0 0 0 0 0 0 0 0 0 0 0 0 0 0 0 1 2 3 3 3 4 5 5 5 5 5 4 4 4 3 3 2 2 2 2 2 2 2 1 1 1 1 0 0 0
0 1 1 1 0 0 0 0 0 0 0 0 0 0 0 0 0 0 0 1 2 3 3 3 4 5 6 5 5 5 4 4 4 4 3 3 3 2 2 2 2 2 2 1 1 0 0 0 0
1 1 1 0 0 0 0 0 0 0 0 0 0 0 0 0 0 0 0 1 2 3 4 3 4 5 6 5 5 4 4 4 4 4 4 4 3 3 3 2 2 2 1 1 1 0 0 0 0
1 1 1 0 0 0 0 0 0 0 0 0 0 0 0 0 0 0 1 1 2 4 4 4 4 5 6 6 5 4 4 5 5 5 4 4 4 3 3 2 2 2 1 1 0 0 0 0 0
1 1 0 0 0 0 0 0 0 0 0 0 0 0 0 0 0 0 1 1 2 4 5 5 4 5 5 5 5 4 4 5 5 5 4 4 4 4 3 2 2 1 1 0 0 0 0 0 0
1 1 0 0 0 0 0 0 0 0 0 0 0 0 0 0 1 1 1 2 3 5 6 5 5 5 5 4 4 4 5 5 5 4 4 4 4 3 3 2 2 1 1 0 0 0 0 0 0
1 1 0 0 0 0 0 0 0 0 0 0 0 1 1 1 1 1 2 3 4 5 6 5 5 5 5 4 4 4 5 5 4 4 4 4 3 3 2 2 1 1 1 0 0 0 0 0 0
1 1 0 0 0 0 0 0 0 0 0 0 1 1 1 1 1 1 2 3 3 4 4 4 5 5 4 4 4 4 5 5 4 3 3 3 3 2 1 1 1 1 0 0 0 0 0 0 0
0 0 0 0 0 0 0 0 0 0 0 0 1 1 1 1 1 1 1 2 2 3 3 4 4 4 4 4 4 5 5 5 4 4 3 3 3 2 1 1 1 0 0 0 0 0 0 0 0
0 0 0 0 0 0 0 0 0 0 0 0 1 1 1 1 1 1 1 1 2 2 3 3 4 3 3 4 4 5 5 5 5 4 4 3 3 2 1 1 0 0 0 0 0 0 0 0 0
0 0 0 0 0 0 0 0 0 0 0 0 1 1 1 1 1 1 1 1 1 2 3 3 3 3 3 3 4 4 5 6 5 5 4 3 3 2 1 1 0 0 0 0 0 0 0 0 0
0 0 0 0 0 0 0 0 0 0 0 1 1 1 1 0 1 1 1 1 1 2 3 3 3 2 2 3 3 4 5 6 6 5 4 3 3 2 1 1 0 0 0 0 0 0 0 0 0
0 0 0 0 0 0 0 0 0 0 0 1 1 1 0 0 0 1 1 1 1 1 2 3 3 2 2 2 3 4 5 6 6 6 4 3 3 2 1 0 0 0 0 0 0 0 0 0 0
0 0 0 0 0 0 0 0 0 0 0 1 1 1 1 0 0 0 1 1 1 1 2 2 3 2 2 2 3 4 4 5 6 5 4 3 3 2 1 0 0 0 0 0 0 0 0 0 0
0 0 0 0 0 0 0 0 0 0 0 1 1 1 1 1 1 0 1 1 1 1 2 2 2 2 2 2 3 3 4 4 5 4 4 3 3 2 1 0 0 0 0 0 0 0 0 0 0
0 0 0 0 0 0 0 0 0 0 0 1 1 1 1 1 1 1 1 1 1 2 2 3 2 2 2 2 2 3 3 3 3 3 3 3 2 1 1 0 0 0 0 0 0 0 0 0 0
0 0 0 0 0 0 0 0 0 0 0 1 1 1 1 1 1 1 1 1 1 2 3 3 3 2 2 2 3 3 3 3 3 3 3 3 2 1 0 0 0 0 0 0 0 0 0 0 0
0 0 0 0 0 0 0 0 0 0 0 1 1 1 1 1 1 1 1 1 1 2 2 3 2 1 1 2 3 3 3 3 3 3 4 3 2 1 0 0 0 0 0 0 0 0 0 0 0
0 0 0 0 0 0 0 0 0 0 0 0 1 1 1 0 1 1 1 1 1 2 2 2 2 1 1 1 3 3 3 3 3 3 3 3 2 1 0 0 0 0 0 0 0 0 0 0 0
0 0 0 0 0 0 0 0 0 0 0 0 0 0 0 0 0 1 1 1 1 1 2 2 2 1 1 1 2 4 4 3 2 2 2 2 1 0 0 0 0 0 0 0 0 0 0 0 0
0 0 0 0 0 0 0 0 0 0 0 0 0 0 0 0 0 0 1 1 1 1 2 2 2 1 1 1 2 3 3 3 2 2 2 1 1 1 0 0 0 0 0 0 0 0 0 0 0
0 0 0 0 0 0 0 0 0 0 0 0 0 0 0 0 0 1 1 1 1 1 2 2 2 1 1 1 1 2 2 3 2 2 2 2 1 1 0 0 0 0 0 0 0 0 0 0 0
0 0 0 0 0 0 0 0 0 0 0 0 0 0 0 0 0 1 1 1 1 1 1 2 2 1 1 1 1 1 2 2 2 2 2 2 1 1 0 0 0 0 0 0 0 0 0 0 0
0 0 0 0 0 0 0 0 0 0 0 0 0 0 0 0 1 1 1 1 1 1 1 2 1 1 1 1 1 2 2 2 2 2 2 1 1 1 1 0 0 0 0 0 0 0 0 0 0
0 0 0 0 0 0 0 0 0 0 0 0 0 0 0 0 0 1 1 1 1 1 1 1 1 1 1 1 2 2 2 2 2 2 1 1 0 0 1 0 0 0 0 0 0 0 0 0 0
0 0 0 0 0 0 0 0 0 0 0 0 0 0 0 0 0 0 1 1 1 1 1 1 1 1 1 1 2 3 3 2 2 1 1 1 0 0 0 0 0 0 0 0 0 0 0 0 0
0 0 0 0 0 0 0 0 0 0 0 0 0 0 0 0 0 0 0 1 1 1 1 1 1 1 1 1 2 3 3 2 2 1 1 1 0 0 0 0 0 0 0 0 0 0 0 0 0
0 0 0 0 0 0 0 0 0 0 0 0 0 0 0 0 0 0 0 0 1 1 1 1 1 1 1 1 2 3 3 2 2 1 1 0 0 0 0 0 0 0 0 0 0 0 0 0 0
Wind_Speed
10 9 7 3 4 8 14 12 11 9 7 4 4 4 6 6 3 2 4 5 9 11 15 19 19 18 17 18 18 18 18 18 18 17 17 16 16 16 16 16 16 16 16 16 16 16 16 16 16
10 8 5 3 7 11 12 13 15 12 8 3 3 4 6 5 2 5 5 7 9 10 14 16 18 18 17 18 18 18 18 18 18 17 17 17 16 16 16 16 16 16 16 16 16 16 16 16 15
11 8 4 5 10 14 10 6 6 6 5 4 4 4 5 3 1 3 6 8 8 9 11 15 20 18 18 18 18 18 19 18 18 18 17 17 17 16 17 16 16 16 17 17 16 16 16 15 14
5 4 5 10 20 17 14 11 9 7 5 4 4 5 3 2 1 3 6 7 7 7 9 15 21 19 18 18 18 18 19 19 18 18 17 17 17 17 16 16 16 17 17 17 16 16 15 14 13
3 4 9 14 22 18 15 15 12 10 8 5 6 7 4 1 4 5 5 6 6 7 7 13 20 20 19 18 18 18 19 19 19 18 18 17 17 17 16 16 17 17 17 16 16 15 15 14 13
4 5 10 17 19 16 15 13 12 12 9 6 7 8 6 2 2 4 4 5 5 7 8 11 17 19 18 18 18 18 19 19 19 18 18 18 18 17 17 17 17 16 16 16 16 15 14 14 12
5 7 14 17 17 15 13 10 10 9 10 7 6 8 5 1 2 3 2 3 4 7 7 9 11 14 17 17 18 18 18 19 19 18 18 17 17 18 18 17 17 16 16 16 15 15 14 13 12
4 6 12 14 15 15 11 10 8 8 10 7 5 6 4 1 4 2 1 1 3 6 7 8 9 10 10 12 15 17 17 18 18 17 16 16 16 17 17 16 16 16 16 16 15 14 14 13 11
4 8 13 13 12 11 11 12 12 11 10 9 7 7 3 2 4 3 1 1 2 5 7 8 9 9 9 9 12 14 15 16 16 15 16 14 9 10 11 13 15 16 16 15 15 14 14 12 10
5 9 14 11 12 13 14 14 14 12 13 11 9 6 3 2 3 4 4 4 4 5 6 7 8 8 8 8 8 8 9 10 10 10 11 8 8 7 10 14 14 15 15 15 14 14 13 9 4
7 12 13 15 14 14 16 16 14 15 16 12 10 8 6 5 4 6 7 6 6 6 7 7 8 8 9 7 6 5 5 6 9 11 11 8 7 7 7 6 8 9 11 8 9 8 5 4 4
10 14 15 15 14 14 15 15 15 16 17 12 11 9 9 8 8 7 8 8 6 7 7 8 8 8 8 8 6 6 6 6 6 9 11 8 6 6 7 6 6 6 5 6 5 4 4 5 5
13 13 14 14 14 15 17 17 16 17 15 13 11 10 10 11 9 8 8 8 7 7 8 8 9 9 8 7 7 7 7 7 8 7 9 10 8 8 8 7 6 6 5 6 5 4 5 5 5
9 13 16 16 16 15 17 17 16 17 14 13 11 10 10 11 9 9 9 9 9 8 8 8 9 10 8 7 7 7 7 7 8 7 9 11 9 8 8 7 7 6 6 6 5 5 5 4 3
11 14 16 15 13 10 11 15 15 15 11 12 11 11 11 10 9 11 9 9 9 9 8 9 9 9 9 8 8 7 7 8 7 7 9 10 10 10 8 7 7 6 6 6 4 5 4 4 3
10 9 9 9 8 8 8 15 12 11 11 12 10 10 10 9 10 10 10 9 8 8 8 9 9 9 9 8 8 7 7 8 7 7 8 10 11 11 9 7 7 7 6 5 4 4 4 3 3
4 7 13 13 8 8 10 17 14 10 11 11 9 8 9 9 10 10 9 8 7 7 8 9 8 9 9 8 7 7 7 7 7 7 7 9 11 12 9 8 7 8 6 5 5 4 4 4 3
9 11 14 15 11 12 13 16 14 10 11 11 9 7 7 8 9 8 8 7 7 7 7 9 9 9 8 7 6 5 6 7 7 7 8 11 10 12 10 8 9 9 7 5 5 5 4 4 4
11 13 16 17 14 12 14 17 15 11 10 9 7 6 6 7 7 7 7 5 5 5 6 8 9 9 8 6 7 7 7 7 7 7 10 11 11 12 11 9 9 9 7 7 7 5 6 4 4
12 14 15 14 11 13 15 17 15 10 7 5 5 5 6 6 7 7 7 5 6 6 6 7 8 9 8 7 7 6 6 6 7 7 9 10 11 12 11 11 9 9 8 8 8 7 5 4 4
11 11 12 16 16 11 12 11 9 7 4 3 4 4 4 5 5 6 6 5 5 6 7 6 8 8 7 8 6 6 5 5 6 8 9 10 11 12 11 12 10 10 9 8 8 8 7 5 4
10 10 13 15 12 7 6 8 7 7 4 3 3 4 4 4 3 5 6 5 6 6 7 7 7 8 9 8 8 9 8 8 8 7 7 10 11 12 13 13 12 11 8 9 9 8 6 7 5
8 13 15 15 12 10 9 7 6 4 4 3 2 3 3 3 2 4 5 5 5 5 6 7 7 7 8 8 10 10 8 7 6 7 9 10 10 12 13 13 12 11 9 10 9 8 7 6 5
11 12 12 10 5 5 5 4 4 2 4 4 2 2 2 2 1 2 4 4 4 3 4 5 7 7 8 9 10 11 11 9 9 10 10 9 8 10 13 13 12 11 9 10 10 9 9 7 6
9 7 5 5 2 4 6 4 3 3 4 4 3 2 1 1 1 2 4 4 3 3 4 5 5 6 8 9 10 11 11 11 11 10 10 10 9 9 13 12 12 11 10 10 10 9 9 8 7
7 5 3 4 5 7 8 4 2 3 4 5 5 4 3 3 2 3 4 4 3 3 4 4 4 5 7 8 9 9 10 9 9 10 9 10 8 9 13 13 12 12 12 11 10 8 8 8 7
5 3 4 5 7 6 5 3 3 5 7 8 7 7 5 5 4 3 4 4 3 3 3 3 3 4 5 7 8 9 9 9 10 9 9 8 8 9 13 14 13 13 13 12 11 8 9 8 8
4 5 4 3 5 6 6 4 3 5 8 10 9 7 7 7 6 4 4 4 4 3 3 3 3 4 4 5 7 7 9 9 10 9 10 9 10 11 13 14 14 13 13 13 11 9 9 9 8
3 3 3 4 4 4 6 5 3 5 7 8 8 8 8 7 6 5 4 4 4 4 3 3 2 2 3 4 5 6 7 9 10 10 10 10 10 11 13 14 14 14 14 13 12 11 11 11 10
3 3 2 3 5 5 7 8 2 4 6 7 8 8 8 8 7 6 6 5 4 4 4 3 2 2 3 3 3 6 6 7 8 10 10 10 10 11 12 13 14 14 14 14 14 13 12 12 12
Wind_Direction
294 265 247 241 239 234 240 237 248 259 256 261 297 295 292 283 295 104 158 127 114 133 142 157 158 161 161 158 156 153 149 148 147 145 142 140 138 135 134 130 127 124 119 116 113 109 105 102 99
293 266 246 230 232 236 240 232 241 252 262 276 291 289 283 287 341 101 133 110 122 135 142 159 159 162 163 160 158 155 153 151 150 148 145 144 142 139 137 133 128 124 119 116 112 108 106 104 102
279 259 235 225 228 232 241 240 235 247 266 269 265 265 261 278 333 89 114 116 125 138 147 156 160 164 164 162 159 157 155 153 151 150 148 147 145 142 139 134 129 125 121 118 114 112 110 108 106
278 234 239 239 239 238 252 269 279 278 262 248 250 257 244 248 26 96 110 114 123 139 146 153 161 165 166 164 162 160 157 155 153 151 150 149 145 142 139 134 130 127 123 121 119 116 113 111 110
253 238 233 239 246 250 257 267 274 272 264 259 249 251 267 326 90 108 117 120 131 140 142 153 162 166 166 166 165 162 160 158 155 153 151 150 146 142 138 135 132 130 128 125 123 120 118 115 112
239 234 237 242 248 250 252 257 268 271 267 257 259 259 254 252 108 112 120 132 142 143 145 152 164 166 167 168 167 165 162 159 156 154 152 150 148 144 141 138 136 135 133 130 127 125 122 119 115
248 249 247 256 264 264 267 278 277 284 282 271 275 273 261 248 57 75 101 131 146 144 144 151 163 167 169 170 168 165 163 160 157 155 153 150 148 147 145 143 140 138 136 133 130 128 125 122 119
263 266 256 255 262 266 277 288 296 303 294 301 289 266 266 340 347 8 99 157 151 146 151 158 162 165 169 170 168 165 163 161 158 155 152 149 148 147 145 143 143 141 139 135 133 131 128 125 124
268 250 250 254 270 284 305 306 303 308 295 295 294 300 328 0 332 329 282 204 176 166 162 166 168 168 167 168 169 164 162 161 157 154 149 146 148 146 145 142 144 144 141 139 138 136 133 129 132
222 246 256 271 286 294 299 297 300 298 289 286 294 307 339 336 298 273 253 220 202 189 177 172 170 167 165 167 166 166 166 162 161 158 158 157 151 148 143 141 144 145 142 141 142 143 141 138 145
237 252 271 280 285 290 292 290 290 283 276 276 281 291 296 280 269 258 251 240 219 203 195 182 171 169 166 165 170 168 165 166 166 163 167 154 145 141 137 141 142 141 142 142 145 149 160 155 147
266 271 279 285 293 292 284 283 279 271 271 276 276 279 282 261 248 244 247 242 237 214 204 190 173 171 170 168 172 167 166 169 167 170 166 155 150 148 148 151 151 153 153 148 156 167 166 149 150
269 274 283 288 289 287 282 275 275 269 271 271 268 262 270 267 250 243 242 244 237 230 210 198 182 175 175 171 172 173 171 172 169 169 168 158 154 155 155 156 156 160 154 156 167 167 159 149 158
282 289 288 284 276 275 275 276 272 267 267 266 265 262 259 259 258 245 238 235 229 226 217 204 190 180 176 176 174 174 173 173 171 168 167 162 158 158 159 155 159 159 155 160 167 161 152 148 149
287 286 283 270 260 263 277 270 258 263 266 264 263 264 260 255 259 253 235 232 224 218 217 210 195 186 179 179 181 176 175 175 173 170 166 165 160 159 160 156 159 158 155 159 161 150 140 139 140
273 272 278 283 275 273 267 269 267 277 276 267 259 259 261 258 254 260 243 232 223 215 213 214 203 191 183 181 183 177 176 176 174 169 169 166 163 161 160 157 159 157 152 154 152 147 139 142 146
265 290 297 303 282 288 271 276 278 270 266 266 262 261 268 264 259 263 254 233 220 215 211 211 201 192 186 181 181 184 176 177 174 171 168 169 165 163 159 158 158 155 151 153 155 149 145 148 148
307 302 296 298 298 296 285 284 287 276 263 259 258 258 259 264 262 264 258 234 218 212 212 210 203 194 185 178 179 184 177 178 176 172 170 170 166 164 158 157 158 155 152 155 154 153 149 147 149
301 296 295 297 299 298 290 290 290 280 270 262 251 251 254 259 271 271 261 228 211 209 213 208 200 194 183 180 182 183 182 178 179 173 174 171 167 166 160 158 160 158 158 163 160 154 155 155 143
297 296 299 303 307 305 291 289 290 278 266 263 268 255 246 255 265 265 269 232 210 207 216 218 204 195 189 187 187 180 178 181 181 173 175 173 171 168 165 161 162 162 160 164 164 155 154 161 153
298 297 305 308 311 295 288 286 286 289 272 249 266 271 265 259 260 268 272 244 219 208 210 217 210 197 193 190 179 177 176 178 182 179 176 179 176 172 169 166 162 165 164 167 168 163 161 165 170
301 302 306 303 303 295 295 294 287 292 283 251 256 258 256 259 255 267 272 256 233 218 213 212 208 198 195 191 185 181 189 191 185 178 177 179 178 175 171 169 166 167 167 167 171 168 163 160 171
296 302 295 286 279 282 272 266 281 276 284 277 267 273 263 249 243 263 267 261 256 227 219 211 201 202 200 198 192 187 192 198 181 173 177 184 182 179 174 173 170 169 170 170 172 167 168 170 169
308 308 293 271 259 265 270 275 288 308 316 318 309 296 296 265 275 278 287 284 270 249 232 213 201 203 202 202 194 190 190 192 182 178 180 188 186 182 177 175 174 172 172 173 173 171 173 174 172
332 335 334 337 296 265 314 303 282 334 352 349 347 356 5 303 310 312 311 304 302 289 247 215 205 209 207 203 198 194 192 193 190 185 185 186 188 184 181 178 177 175 175 172 170 172 175 175 174
316 322 335 315 302 307 312 279 293 7 14 12 9 1 357 356 5 339 311 300 291 294 272 223 213 218 214 206 201 195 196 195 196 190 190 189 193 187 177 179 179 177 174 174 170 171 175 176 177
312 317 300 287 283 277 267 270 299 2 11 11 6 2 357 354 354 342 321 307 303 291 265 231 232 234 224 212 203 198 199 202 199 192 192 190 192 186 178 180 180 178 176 175 172 176 177 176 181
249 302 327 316 308 297 293 298 325 4 5 1 359 360 354 354 353 344 325 317 316 311 290 248 236 241 242 229 207 206 203 205 200 196 195 195 193 187 179 180 180 179 178 177 176 176 176 178 182
303 297 292 277 271 292 302 302 359 353 355 351 348 352 351 345 345 341 327 324 320 314 304 267 242 243 249 248 221 205 205 203 202 201 200 199 195 188 182 180 181 181 181 179 179 180 178 181 183
271 286 295 284 287 277 280 280 318 351 355 349 342 341 343 338 338 337 333 332 332 327 327 313 283 256 252 253 244 213 202 203 205 203 199 198 196 191 183 180 181 183 183 181 181 183 183 184 185